QPF
0.00 0.00 0.00 0.00 0.00 0.00 0.00 0.00 0.00 0.00 0.00 0.00 0.00 0.00 0.00 0.00 0.00 0.00 0.00 0.00 0.00 0.00 0.00 0.00 0.00 0.00 0.00 0.00 0.00 0.00 0.00 0.00 0.00 0.00 0.00 0.00 0.00 0.00 0.00 0.00 0.00 0.00 0.00 0.00
0.00 0.00 0.00 0.00 0.00 0.00 0.00 0.00 0.00 0.00 0.00 0.00 0.00 0.00 0.00 0.00 0.00 0.00 0.00 0.00 0.00 0.00 0.00 0.00 0.00 0.00 0.00 0.00 0.00 0.00 0.00 0.00 0.00 0.00 0.00 0.00 0.00 0.00 0.00 0.00 0.00 0.00 0.00 0.00
0.00 0.00 0.00 0.00 0.00 0.00 0.00 0.00 0.00 0.00 0.00 0.00 0.00 0.00 0.00 0.00 0.00 0.00 0.00 0.00 0.00 0.00 0.00 0.00 0.00 0.00 0.00 0.00 0.00 0.00 0.00 0.00 0.00 0.00 0.00 0.00 0.00 0.00 0.00 0.00 0.00 0.00 0.00 0.00
0.00 0.00 0.00 0.00 0.00 0.00 0.00 0.00 0.00 0.00 0.00 0.00 0.00 0.00 0.00 0.00 0.00 0.00 0.00 0.00 0.00 0.00 0.00 0.00 0.00 0.00 0.00 0.00 0.00 0.00 0.00 0.00 0.00 0.00 0.00 0.00 0.00 0.00 0.00 0.00 0.00 0.00 0.00 0.00
0.00 0.00 0.00 0.00 0.00 0.00 0.00 0.00 0.00 0.00 0.00 0.00 0.00 0.00 0.00 0.00 0.00 0.00 0.00 0.00 0.00 0.00 0.00 0.00 0.00 0.00 0.00 0.00 0.00 0.00 0.00 0.00 0.00 0.00 0.00 0.00 0.00 0.00 0.00 0.00 0.00 0.00 0.00 0.00
0.00 0.00 0.00 0.00 0.00 0.00 0.00 0.00 0.00 0.00 0.00 0.00 0.00 0.00 0.00 0.00 0.00 0.00 0.00 0.00 0.00 0.00 0.00 0.00 0.00 0.00 0.00 0.00 0.00 0.00 0.00 0.00 0.00 0.00 0.00 0.00 0.00 0.00 0.00 0.00 0.00 0.00 0.00 0.00
0.00 0.00 0.00 0.00 0.00 0.00 0.00 0.00 0.00 0.00 0.00 0.00 0.00 0.00 0.00 0.00 0.00 0.00 0.00 0.00 0.00 0.00 0.00 0.00 0.00 0.00 0.00 0.00 0.00 0.00 0.00 0.00 0.00 0.00 0.00 0.00 0.00 0.00 0.00 0.00 0.00 0.00 0.00 0.00
0.00 0.00 0.00 0.00 0.00 0.00 0.00 0.00 0.00 0.00 0.00 0.00 0.00 0.00 0.00 0.00 0.00 0.00 0.00 0.00 0.00 0.00 0.00 0.00 0.00 0.00 0.00 0.00 0.00 0.00 0.00 0.00 0.00 0.00 0.00 0.00 0.00 0.00 0.00 0.00 0.00 0.00 0.00 0.00
0.00 0.00 0.00 0.00 0.00 0.00 0.00 0.00 0.00 0.00 0.00 0.00 0.00 0.00 0.00 0.00 0.00 0.00 0.00 0.00 0.00 0.00 0.00 0.00 0.00 0.00 0.00 0.00 0.00 0.00 0.00 0.00 0.00 0.00 0.00 0.00 0.00 0.00 0.00 0.00 0.00 0.00 0.00 0.00
0.00 0.00 0.00 0.00 0.00 0.00 0.00 0.00 0.00 0.00 0.00 0.00 0.00 0.00 0.00 0.00 0.00 0.00 0.00 0.00 0.00 0.00 0.00 0.00 0.00 0.00 0.00 0.00 0.00 0.00 0.00 0.00 0.00 0.00 0.00 0.00 0.00 0.00 0.00 0.00 0.00 0.00 0.00 0.00
0.00 0.00 0.00 0.00 0.00 0.00 0.00 0.00 0.00 0.00 0.00 0.00 0.00 0.00 0.00 0.00 0.00 0.00 0.00 0.00 0.00 0.00 0.00 0.00 0.00 0.00 0.00 0.00 0.00 0.00 0.00 0.00 0.00 0.00 0.00 0.00 0.00 0.00 0.00 0.00 0.00 0.00 0.00 0.00
0.00 0.00 0.00 0.00 0.00 0.00 0.00 0.00 0.00 0.00 0.00 0.00 0.00 0.00 0.00 0.00 0.00 0.00 0.00 0.00 0.00 0.00 0.00 0.00 0.00 0.00 0.00 0.00 0.00 0.00 0.00 0.00 0.00 0.00 0.00 0.00 0.00 0.00 0.00 0.00 0.00 0.00 0.00 0.00
0.00 0.00 0.00 0.00 0.00 0.00 0.00 0.00 0.00 0.00 0.00 0.00 0.00 0.00 0.00 0.00 0.00 0.00 0.00 0.00 0.00 0.00 0.00 0.00 0.00 0.00 0.00 0.00 0.00 0.00 0.00 0.00 0.00 0.00 0.00 0.00 0.00 0.00 0.00 0.00 0.00 0.00 0.00 0.00
0.00 0.00 0.00 0.00 0.00 0.00 0.00 0.00 0.00 0.00 0.00 0.00 0.00 0.00 0.00 0.00 0.00 0.00 0.00 0.00 0.00 0.00 0.00 0.00 0.00 0.00 0.00 0.00 0.00 0.00 0.00 0.00 0.00 0.00 0.00 0.00 0.00 0.00 0.00 0.00 0.00 0.00 0.00 0.00
0.00 0.00 0.00 0.00 0.00 0.00 0.00 0.00 0.00 0.00 0.00 0.00 0.00 0.00 0.00 0.00 0.00 0.00 0.00 0.00 0.00 0.00 0.00 0.00 0.00 0.00 0.00 0.00 0.00 0.00 0.00 0.00 0.00 0.00 0.00 0.00 0.00 0.00 0.00 0.00 0.00 0.00 0.00 0.00
0.00 0.00 0.00 0.00 0.00 0.00 0.00 0.00 0.00 0.00 0.00 0.00 0.00 0.00 0.00 0.00 0.00 0.00 0.00 0.00 0.00 0.00 0.00 0.00 0.00 0.00 0.00 0.00 0.00 0.00 0.00 0.00 0.00 0.00 0.00 0.00 0.00 0.00 0.00 0.00 0.00 0.00 0.00 0.00
0.00 0.00 0.00 0.00 0.00 0.00 0.00 0.00 0.00 0.00 0.00 0.00 0.00 0.00 0.00 0.00 0.00 0.00 0.00 0.00 0.00 0.00 0.00 0.00 0.00 0.00 0.00 0.00 0.00 0.00 0.00 0.00 0.00 0.00 0.00 0.00 0.00 0.00 0.00 0.00 0.00 0.00 0.00 0.00
0.00 0.00 0.00 0.00 0.00 0.00 0.00 0.00 0.00 0.00 0.00 0.00 0.00 0.00 0.00 0.00 0.00 0.00 0.00 0.00 0.00 0.00 0.00 0.00 0.00 0.00 0.00 0.00 0.00 0.00 0.00 0.00 0.00 0.00 0.00 0.00 0.00 0.00 0.00 0.00 0.00 0.00 0.00 0.00
0.00 0.00 0.00 0.00 0.00 0.00 0.00 0.00 0.00 0.00 0.00 0.00 0.00 0.00 0.00 0.00 0.00 0.00 0.00 0.00 0.00 0.00 0.00 0.00 0.00 0.00 0.00 0.00 0.00 0.00 0.00 0.00 0.00 0.00 0.00 0.00 0.00 0.00 0.00 0.00 0.00 0.00 0.00 0.00
0.00 0.00 0.00 0.00 0.00 0.00 0.00 0.00 0.00 0.00 0.00 0.00 0.00 0.00 0.00 0.00 0.00 0.00 0.00 0.00 0.00 0.00 0.00 0.00 0.00 0.00 0.00 0.00 0.00 0.00 0.00 0.00 0.00 0.00 0.00 0.00 0.00 0.00 0.00 0.00 0.00 0.00 0.00 0.00
0.00 0.00 0.00 0.00 0.00 0.00 0.00 0.00 0.00 0.00 0.00 0.00 0.00 0.00 0.00 0.00 0.00 0.00 0.00 0.00 0.00 0.00 0.00 0.00 0.00 0.00 0.00 0.00 0.00 0.00 0.00 0.00 0.00 0.00 0.00 0.00 0.00 0.00 0.00 0.00 0.00 0.00 0.00 0.00
0.00 0.00 0.00 0.00 0.00 0.00 0.00 0.00 0.00 0.00 0.00 0.00 0.00 0.00 0.00 0.00 0.00 0.00 0.00 0.00 0.00 0.00 0.00 0.00 0.00 0.00 0.00 0.00 0.00 0.00 0.00 0.00 0.00 0.00 0.00 0.00 0.00 0.00 0.00 0.00 0.00 0.00 0.00 0.00
0.00 0.00 0.00 0.00 0.00 0.00 0.00 0.00 0.00 0.00 0.00 0.00 0.00 0.00 0.00 0.00 0.00 0.00 0.00 0.00 0.00 0.00 0.00 0.00 0.00 0.00 0.00 0.00 0.00 0.00 0.00 0.00 0.00 0.00 0.00 0.00 0.00 0.00 0.00 0.00 0.00 0.00 0.00 0.00
0.00 0.00 0.00 0.00 0.00 0.00 0.00 0.00 0.00 0.00 0.00 0.00 0.00 0.01 0.01 0.01 0.00 0.00 0.00 0.00 0.00 0.00 0.00 0.00 0.00 0.00 0.00 0.00 0.00 0.00 0.00 0.00 0.00 0.00 0.00 0.00 0.00 0.00 0.00 0.00 0.00 0.00 0.00 0.00
0.00 0.00 0.00 0.00 0.00 0.00 0.00 0.00 0.00 0.00 0.01 0.01 0.01 0.01 0.01 0.01 0.01 0.00 0.00 0.00 0.00 0.00 0.00 0.00 0.00 0.00 0.00 0.00 0.00 0.00 0.00 0.00 0.00 0.00 0.01 0.01 0.00 0.00 0.00 0.00 0.00 0.00 0.00 0.00
0.00 0.00 0.00 0.01 0.01 0.01 0.01 0.01 0.02 0.01 0.01 0.01 0.01 0.01 0.01 0.01 0.01 0.01 0.00 0.00 0.00 0.00 0.00 0.00 0.00 0.01 0.00 0.00 0.00 0.01 0.01 0.01 0.00 0.00 0.01 0.01 0.00 0.00 0.00 0.00 0.00 0.00 0.00 0.00
0.00 0.00 0.01 0.01 0.01 0.01 0.02 0.02 0.02 0.01 0.01 0.02 0.02 0.01 0.01 0.01 0.01 0.01 0.01 0.01 0.01 0.01 0.01 0.01 0.01 0.01 0.01 0.01 0.01 0.01 0.01 0.01 0.00 0.00 0.01 0.00 0.00 0.00 0.00 0.00 0.00 0.00 0.00 0.00
MSLP
1021.36 1021.19 1020.97 1020.71 1020.39 1019.96 1019.42 1018.74 1017.94 1017.03 1016.07 1015.11 1014.25 1013.56 1013.12 1012.97 1013.13 1013.62 1014.38 1015.36 1016.50 1017.71 1018.94 1020.11 1021.20 1022.17 1023.02 1023.75 1024.36 1024.86 1025.26 1025.58 1025.82 1025.98 1026.06 1026.08 1026.03 1025.92 1025.75 1025.51 1025.21 1024.84 1024.40 1023.90
1021.30 1020.98 1020.58 1020.12 1019.58 1018.96 1018.28 1017.52 1016.69 1015.83 1014.97 1014.16 1013.44 1012.89 1012.55 1012.45 1012.62 1013.04 1013.71 1014.58 1015.61 1016.74 1017.91 1019.08 1020.21 1021.27 1022.22 1023.06 1023.78 1024.37 1024.84 1025.20 1025.44 1025.59 1025.66 1025.65 1025.57 1025.43 1025.22 1024.96 1024.63 1024.22 1023.74 1023.18
1021.18 1020.73 1020.17 1019.51 1018.77 1017.98 1017.15 1016.30 1015.46 1014.64 1013.88 1013.19 1012.63 1012.21 1011.97 1011.93 1012.09 1012.47 1013.04 1013.80 1014.72 1015.75 1016.86 1018.01 1019.16 1020.28 1021.32 1022.27 1023.09 1023.77 1024.31 1024.71 1024.99 1025.14 1025.20 1025.18 1025.08 1024.93 1024.71 1024.43 1024.07 1023.64 1023.13 1022.54
1020.96 1020.41 1019.70 1018.88 1017.98 1017.03 1016.09 1015.17 1014.31 1013.54 1012.86 1012.30 1011.87 1011.58 1011.43 1011.44 1011.61 1011.95 1012.44 1013.10 1013.90 1014.84 1015.87 1016.98 1018.13 1019.28 1020.37 1021.39 1022.29 1023.04 1023.65 1024.10 1024.41 1024.59 1024.67 1024.65 1024.57 1024.42 1024.21 1023.94 1023.59 1023.15 1022.62 1022.01
1020.57 1019.93 1019.13 1018.20 1017.18 1016.13 1015.10 1014.14 1013.28 1012.55 1011.96 1011.52 1011.21 1011.03 1010.98 1011.05 1011.23 1011.54 1011.97 1012.53 1013.23 1014.06 1015.01 1016.06 1017.17 1018.31 1019.42 1020.47 1021.41 1022.22 1022.87 1023.36 1023.71 1023.93 1024.04 1024.06 1024.01 1023.90 1023.73 1023.49 1023.16 1022.74 1022.23 1021.61
1019.92 1019.24 1018.39 1017.39 1016.32 1015.22 1014.16 1013.20 1012.37 1011.69 1011.19 1010.84 1010.65 1010.58 1010.62 1010.74 1010.95 1011.24 1011.62 1012.11 1012.73 1013.46 1014.32 1015.29 1016.34 1017.43 1018.52 1019.55 1020.50 1021.32 1022.00 1022.52 1022.91 1023.17 1023.33 1023.40 1023.41 1023.36 1023.24 1023.05 1022.78 1022.40 1021.91 1021.33
1018.96 1018.27 1017.40 1016.40 1015.33 1014.24 1013.21 1012.28 1011.51 1010.91 1010.49 1010.24 1010.15 1010.18 1010.30 1010.48 1010.72 1011.02 1011.38 1011.82 1012.36 1013.01 1013.78 1014.66 1015.62 1016.64 1017.67 1018.66 1019.58 1020.39 1021.07 1021.61 1022.03 1022.33 1022.54 1022.67 1022.75 1022.77 1022.72 1022.60 1022.39 1022.07 1021.64 1021.10
1017.65 1016.97 1016.14 1015.18 1014.17 1013.14 1012.18 1011.33 1010.64 1010.13 1009.80 1009.65 1009.65 1009.76 1009.95 1010.19 1010.47 1010.78 1011.14 1011.55 1012.05 1012.64 1013.33 1014.12 1015.00 1015.93 1016.88 1017.81 1018.68 1019.45 1020.11 1020.66 1021.10 1021.44 1021.70 1021.90 1022.04 1022.13 1022.16 1022.11 1021.97 1021.73 1021.36 1020.88
1016.02 1015.37 1014.60 1013.73 1012.82 1011.90 1011.05 1010.32 1009.72 1009.31 1009.07 1008.99 1009.06 1009.24 1009.48 1009.78 1010.09 1010.43 1010.80 1011.21 1011.68 1012.23 1012.87 1013.59 1014.39 1015.24 1016.12 1016.97 1017.78 1018.52 1019.16 1019.71 1020.16 1020.53 1020.83 1021.08 1021.29 1021.44 1021.54 1021.56 1021.50 1021.33 1021.04 1020.63
1014.18 1013.57 1012.88 1012.12 1011.33 1010.56 1009.84 1009.23 1008.75 1008.42 1008.26 1008.24 1008.35 1008.57 1008.85 1009.17 1009.52 1009.89 1010.27 1010.69 1011.16 1011.69 1012.29 1012.97 1013.72 1014.51 1015.32 1016.12 1016.88 1017.58 1018.21 1018.76 1019.23 1019.63 1019.97 1020.27 1020.52 1020.73 1020.89 1020.97 1020.97 1020.87 1020.66 1020.33
1012.26 1011.70 1011.10 1010.47 1009.83 1009.20 1008.63 1008.14 1007.76 1007.50 1007.39 1007.40 1007.53 1007.75 1008.03 1008.36 1008.72 1009.09 1009.50 1009.93 1010.40 1010.93 1011.53 1012.19 1012.90 1013.65 1014.43 1015.20 1015.94 1016.63 1017.26 1017.83 1018.32 1018.76 1019.14 1019.48 1019.77 1020.03 1020.23 1020.36 1020.41 1020.37 1020.23 1019.99
1010.45 1009.95 1009.44 1008.94 1008.44 1007.96 1007.52 1007.14 1006.83 1006.63 1006.53 1006.53 1006.64 1006.82 1007.08 1007.37 1007.71 1008.08 1008.48 1008.92 1009.40 1009.94 1010.54 1011.20 1011.90 1012.65 1013.42 1014.19 1014.94 1015.65 1016.31 1016.91 1017.44 1017.92 1018.35 1018.73 1019.06 1019.35 1019.58 1019.75 1019.85 1019.87 1019.79 1019.62
1008.92 1008.48 1008.08 1007.69 1007.33 1006.97 1006.64 1006.34 1006.08 1005.89 1005.77 1005.74 1005.78 1005.89 1006.08 1006.31 1006.60 1006.93 1007.31 1007.74 1008.22 1008.76 1009.37 1010.03 1010.75 1011.51 1012.30 1013.09 1013.87 1014.62 1015.33 1015.99 1016.58 1017.12 1017.60 1018.02 1018.39 1018.71 1018.97 1019.18 1019.31 1019.38 1019.36 1019.27
1007.79 1007.42 1007.11 1006.85 1006.59 1006.34 1006.08 1005.83 1005.59 1005.38 1005.21 1005.09 1005.04 1005.05 1005.14 1005.29 1005.50 1005.77 1006.10 1006.50 1006.96 1007.49 1008.09 1008.76 1009.49 1010.27 1011.08 1011.91 1012.75 1013.56 1014.33 1015.06 1015.73 1016.33 1016.87 1017.35 1017.76 1018.11 1018.40 1018.63 1018.81 1018.92 1018.97 1018.95
1007.09 1006.81 1006.60 1006.44 1006.27 1006.09 1005.88 1005.64 1005.38 1005.11 1004.87 1004.65 1004.48 1004.38 1004.35 1004.39 1004.50 1004.69 1004.96 1005.30 1005.72 1006.23 1006.81 1007.47 1008.20 1008.99 1009.83 1010.70 1011.59 1012.47 1013.32 1014.12 1014.87 1015.55 1016.15 1016.68 1017.14 1017.53 1017.85 1018.11 1018.33 1018.48 1018.59 1018.65
1006.81 1006.62 1006.51 1006.42 1006.32 1006.18 1005.98 1005.72 1005.41 1005.08 1004.73 1004.41 1004.13 1003.91 1003.75 1003.68 1003.69 1003.79 1003.98 1004.25 1004.61 1005.07 1005.61 1006.24 1006.95 1007.74 1008.60 1009.50 1010.43 1011.37 1012.29 1013.17 1013.99 1014.74 1015.41 1016.00 1016.50 1016.93 1017.29 1017.59 1017.85 1018.05 1018.22 1018.35
1006.85 1006.77 1006.73 1006.70 1006.63 1006.49 1006.27 1005.97 1005.59 1005.18 1004.74 1004.31 1003.92 1003.59 1003.33 1003.16 1003.07 1003.08 1003.19 1003.38 1003.68 1004.07 1004.55 1005.13 1005.81 1006.58 1007.43 1008.34 1009.30 1010.28 1011.25 1012.20 1013.08 1013.90 1014.64 1015.28 1015.83 1016.30 1016.70 1017.04 1017.34 1017.60 1017.83 1018.03
1007.10 1007.10 1007.13 1007.12 1007.05 1006.88 1006.62 1006.25 1005.80 1005.29 1004.77 1004.25 1003.77 1003.35 1003.01 1002.76 1002.60 1002.53 1002.56 1002.69 1002.91 1003.22 1003.64 1004.16 1004.79 1005.52 1006.34 1007.24 1008.21 1009.21 1010.22 1011.21 1012.15 1013.02 1013.81 1014.50 1015.10 1015.62 1016.06 1016.44 1016.79 1017.10 1017.40 1017.66
1007.43 1007.49 1007.54 1007.53 1007.42 1007.20 1006.85 1006.40 1005.88 1005.29 1004.69 1004.11 1003.56 1003.09 1002.70 1002.40 1002.19 1002.07 1002.04 1002.10 1002.26 1002.50 1002.85 1003.30 1003.86 1004.54 1005.32 1006.20 1007.16 1008.17 1009.20 1010.21 1011.19 1012.11 1012.94 1013.67 1014.32 1014.87 1015.36 1015.79 1016.18 1016.55 1016.90 1017.24
1007.72 1007.81 1007.84 1007.79 1007.61 1007.30 1006.87 1006.34 1005.73 1005.08 1004.42 1003.80 1003.23 1002.73 1002.32 1002.00 1001.76 1001.61 1001.54 1001.55 1001.65 1001.83 1002.11 1002.49 1002.99 1003.61 1004.35 1005.20 1006.14 1007.14 1008.17 1009.21 1010.21 1011.16 1012.02 1012.80 1013.48 1014.08 1014.61 1015.09 1015.53 1015.95 1016.36 1016.76
1007.91 1007.98 1007.96 1007.82 1007.54 1007.13 1006.61 1005.99 1005.31 1004.61 1003.92 1003.28 1002.71 1002.22 1001.82 1001.50 1001.26 1001.10 1001.00 1000.97 1001.02 1001.14 1001.36 1001.69 1002.13 1002.70 1003.40 1004.22 1005.13 1006.12 1007.16 1008.20 1009.22 1010.19 1011.09 1011.90 1012.62 1013.26 1013.83 1014.35 1014.85 1015.32 1015.79 1016.25
1007.97 1007.97 1007.85 1007.60 1007.21 1006.69 1006.07 1005.37 1004.64 1003.91 1003.22 1002.59 1002.03 1001.57 1001.19 1000.89 1000.66 1000.49 1000.38 1000.33 1000.33 1000.42 1000.59 1000.86 1001.26 1001.79 1002.45 1003.23 1004.13 1005.11 1006.15 1007.20 1008.23 1009.22 1010.14 1010.98 1011.74 1012.42 1013.04 1013.61 1014.16 1014.68 1015.21 1015.72
1007.87 1007.76 1007.52 1007.15 1006.63 1006.00 1005.29 1004.54 1003.78 1003.04 1002.36 1001.76 1001.24 1000.82 1000.48 1000.20 999.99 999.82 999.70 999.62 999.60 999.64 999.78 1000.01 1000.37 1000.87 1001.50 1002.27 1003.15 1004.12 1005.15 1006.20 1007.25 1008.26 1009.20 1010.07 1010.86 1011.58 1012.24 1012.87 1013.46 1014.04 1014.61 1015.18
1007.61 1007.37 1006.99 1006.48 1005.85 1005.13 1004.35 1003.56 1002.79 1002.07 1001.43 1000.88 1000.41 1000.04 999.74 999.49 999.29 999.13 999.00 998.91 998.86 998.87 998.97 999.17 999.51 999.98 1000.59 1001.34 1002.21 1003.17 1004.19 1005.25 1006.30 1007.31 1008.27 1009.16 1009.99 1010.74 1011.45 1012.11 1012.76 1013.39 1014.01 1014.63
1007.17 1006.79 1006.27 1005.64 1004.90 1004.11 1003.30 1002.50 1001.75 1001.08 1000.49 1000.00 999.60 999.28 999.02 998.81 998.63 998.47 998.33 998.22 998.15 998.14 998.21 998.40 998.71 999.16 999.76 1000.49 1001.34 1002.29 1003.30 1004.35 1005.39 1006.40 1007.37 1008.27 1009.11 1009.90 1010.64 1011.34 1012.03 1012.72 1013.39 1014.06
1006.54 1006.01 1005.37 1004.63 1003.83 1003.00 1002.18 1001.40 1000.70 1000.09 999.57 999.15 998.82 998.56 998.35 998.17 998.01 997.86 997.72 997.60 997.52 997.50 997.56 997.74 998.03 998.47 999.05 999.77 1000.60 1001.53 1002.51 1003.53 1004.55 1005.55 1006.50 1007.40 1008.24 1009.04 1009.81 1010.55 1011.28 1012.01 1012.73 1013.44
1005.70 1005.05 1004.31 1003.49 1002.65 1001.81 1001.01 1000.29 999.65 999.11 998.68 998.34 998.08 997.89 997.72 997.58 997.45 997.32 997.19 997.07 997.00 996.98 997.04 997.22 997.52 997.95 998.51 999.21 1000.01 1000.90 1001.85 1002.83 1003.80 1004.76 1005.68 1006.56 1007.39 1008.19 1008.97 1009.73 1010.50 1011.26 1012.02 1012.78
Thickness
5653 5658 5656 5653 5654 5647 5642 5648 5648 5664 5672 5689 5689 5687 5685 5679 5669 5656 5640 5624 5609 5594 5578 5560 5543 5526 5510 5492 5474 5456 5438 5419 5402 5385 5368 5351 5334 5317 5302 5287 5273 5260 5247 5235
5643 5651 5648 5645 5652 5651 5648 5651 5656 5661 5671 5695 5686 5685 5680 5673 5664 5651 5640 5626 5610 5595 5579 5563 5546 5529 5511 5493 5475 5456 5437 5419 5402 5384 5367 5350 5334 5318 5303 5289 5276 5263 5250 5238
5625 5644 5635 5633 5659 5657 5655 5663 5659 5654 5672 5685 5681 5678 5673 5667 5659 5650 5641 5628 5612 5597 5582 5566 5549 5531 5512 5494 5475 5456 5437 5419 5402 5384 5367 5351 5335 5320 5306 5292 5279 5267 5254 5243
5617 5629 5615 5662 5680 5676 5664 5668 5667 5667 5672 5673 5672 5671 5667 5662 5654 5649 5642 5629 5614 5599 5582 5566 5549 5531 5512 5493 5475 5456 5438 5419 5402 5385 5368 5352 5336 5322 5308 5295 5283 5271 5259 5249
5606 5603 5621 5657 5672 5665 5657 5659 5673 5668 5669 5667 5666 5657 5658 5662 5657 5649 5642 5630 5615 5599 5582 5565 5548 5531 5511 5493 5475 5457 5439 5422 5405 5387 5370 5354 5339 5325 5312 5299 5287 5275 5264 5253
5596 5589 5602 5649 5661 5660 5651 5643 5674 5669 5663 5660 5652 5637 5649 5661 5655 5646 5638 5625 5611 5596 5580 5563 5546 5529 5510 5493 5476 5460 5444 5426 5409 5391 5373 5357 5343 5330 5317 5303 5291 5279 5268 5256
5586 5586 5612 5653 5646 5641 5630 5646 5675 5668 5662 5654 5640 5643 5649 5648 5642 5634 5626 5615 5604 5590 5576 5561 5545 5527 5511 5495 5480 5465 5447 5430 5412 5395 5379 5363 5348 5335 5321 5307 5294 5282 5270 5259
5589 5583 5607 5649 5634 5633 5648 5663 5666 5662 5656 5650 5645 5645 5642 5636 5629 5620 5612 5604 5594 5582 5570 5556 5541 5526 5512 5498 5485 5467 5450 5432 5415 5399 5383 5368 5352 5338 5324 5311 5297 5283 5272 5262
5610 5624 5647 5643 5644 5649 5650 5648 5651 5649 5648 5643 5637 5635 5634 5629 5620 5611 5603 5595 5586 5574 5562 5551 5539 5526 5514 5501 5486 5468 5451 5433 5417 5401 5386 5371 5355 5341 5328 5314 5299 5287 5275 5265
5615 5630 5638 5638 5638 5640 5638 5638 5642 5640 5637 5633 5627 5627 5625 5621 5613 5605 5596 5588 5578 5567 5557 5548 5537 5525 5515 5501 5486 5470 5452 5435 5419 5404 5390 5375 5360 5346 5332 5317 5303 5290 5277 5267
5603 5620 5625 5633 5635 5636 5636 5637 5636 5636 5633 5628 5622 5621 5618 5614 5608 5600 5589 5579 5570 5563 5556 5548 5536 5524 5512 5501 5486 5469 5453 5438 5423 5408 5393 5378 5364 5350 5337 5324 5309 5294 5281 5270
5603 5615 5608 5619 5631 5630 5625 5626 5627 5625 5625 5624 5616 5613 5612 5608 5605 5595 5585 5574 5564 5558 5553 5545 5533 5521 5510 5500 5487 5471 5455 5440 5426 5411 5396 5381 5366 5353 5342 5330 5317 5303 5289 5277
5604 5607 5604 5613 5619 5619 5613 5614 5616 5615 5615 5613 5611 5605 5602 5601 5597 5588 5579 5570 5563 5557 5550 5541 5530 5519 5509 5498 5485 5472 5458 5444 5429 5414 5399 5385 5370 5355 5341 5331 5320 5307 5294 5282
5593 5591 5590 5598 5603 5607 5605 5604 5604 5605 5603 5600 5598 5596 5592 5589 5586 5579 5573 5568 5562 5552 5544 5536 5528 5518 5507 5495 5482 5470 5458 5445 5431 5416 5402 5388 5373 5358 5344 5331 5318 5306 5296 5286
5579 5580 5582 5589 5593 5594 5593 5589 5588 5589 5589 5587 5584 5580 5577 5575 5574 5572 5568 5560 5552 5544 5537 5530 5524 5516 5502 5490 5479 5468 5456 5445 5432 5417 5403 5390 5375 5361 5347 5334 5321 5309 5297 5287
5568 5569 5572 5574 5578 5579 5577 5574 5572 5574 5573 5572 5570 5568 5566 5565 5565 5563 5557 5549 5543 5539 5533 5526 5522 5512 5498 5485 5474 5464 5454 5444 5431 5416 5404 5391 5377 5362 5349 5336 5324 5312 5300 5288
5553 5555 5557 5558 5560 5560 5558 5556 5555 5556 5555 5553 5553 5554 5553 5552 5550 5548 5546 5541 5538 5535 5529 5522 5516 5504 5492 5480 5471 5463 5451 5441 5429 5416 5403 5391 5378 5364 5351 5338 5326 5315 5303 5293
5545 5544 5543 5542 5542 5542 5541 5539 5538 5536 5536 5537 5538 5539 5539 5538 5538 5540 5537 5531 5525 5522 5520 5515 5506 5496 5486 5475 5465 5459 5448 5438 5427 5414 5403 5391 5379 5366 5353 5340 5328 5317 5305 5296
5533 5531 5530 5529 5527 5525 5524 5523 5522 5522 5523 5524 5524 5526 5528 5528 5528 5528 5524 5517 5513 5513 5512 5504 5498 5489 5481 5470 5459 5452 5444 5434 5424 5412 5401 5391 5379 5366 5354 5341 5330 5319 5308 5298
5519 5518 5516 5514 5513 5510 5510 5510 5510 5511 5512 5510 5510 5512 5513 5515 5514 5513 5510 5509 5511 5510 5505 5496 5490 5482 5473 5464 5455 5447 5440 5431 5422 5411 5399 5388 5378 5366 5354 5343 5331 5321 5310 5299
5505 5504 5503 5503 5503 5502 5500 5499 5498 5499 5498 5496 5494 5496 5498 5500 5499 5497 5496 5500 5504 5495 5492 5489 5483 5475 5465 5456 5449 5443 5436 5428 5419 5409 5399 5388 5377 5366 5354 5344 5334 5324 5313 5302
5495 5494 5493 5492 5491 5491 5490 5487 5485 5484 5483 5482 5480 5479 5479 5482 5482 5482 5483 5486 5488 5485 5481 5478 5474 5467 5457 5449 5442 5438 5433 5426 5417 5408 5397 5387 5377 5367 5356 5345 5335 5325 5315 5303
5483 5481 5480 5478 5477 5478 5477 5473 5471 5470 5468 5467 5465 5464 5463 5464 5464 5463 5470 5472 5469 5471 5469 5466 5464 5458 5450 5443 5438 5433 5429 5423 5416 5407 5398 5388 5378 5368 5357 5346 5336 5326 5315 5304
5469 5467 5465 5463 5462 5461 5463 5463 5459 5458 5456 5453 5451 5448 5445 5445 5449 5450 5451 5456 5456 5457 5456 5455 5453 5449 5442 5437 5432 5428 5425 5420 5414 5406 5397 5387 5377 5367 5357 5347 5336 5326 5316 5306
5455 5454 5453 5451 5450 5451 5451 5451 5449 5446 5443 5442 5439 5435 5430 5428 5430 5434 5433 5435 5439 5441 5441 5443 5442 5439 5435 5431 5427 5423 5420 5417 5412 5404 5396 5386 5376 5367 5357 5347 5337 5328 5317 5307
5444 5445 5445 5443 5441 5441 5440 5438 5436 5433 5427 5425 5424 5421 5417 5415 5414 5415 5416 5418 5421 5424 5427 5428 5429 5429 5426 5423 5420 5417 5414 5411 5407 5401 5393 5385 5376 5366 5357 5347 5337 5328 5319 5309
5438 5438 5438 5439 5437 5433 5430 5426 5423 5419 5413 5407 5408 5408 5405 5402 5401 5402 5403 5405 5407 5409 5413 5416 5418 5419 5418 5415 5413 5409 5407 5405 5403 5398 5391 5383 5374 5365 5356 5347 5338 5329 5320 5310